When you browse on this site, cookies collect data to enhance your experience and personalize the content and advertising you see.
Visit our Privacy Policy to learn more. By continuing to use the site, you agree to this use of cookies and data.
  • In Österreich
  • Länderverzeichnis
  • Für 7 Tage
  • Wassertemperatur
  • Wetterkarte
  • News
  • Widgets
  • user-avatar
    Anmelden

    Stündliche Wetter San Antonio del Tequendama

    Heute, 26 Januar, Sonntag

    Zeit Temperatur Niederschläge Wind Luftdruck Luftfeuchtigkeit
    00:00 +21°C° 0.2 mm 1 m/S 643 mmHg 90%
    01:00 +21°C° 0.2 mm 1 m/S 643 mmHg 90%
    02:00 +21°C° 0.1 mm 1 m/S 643 mmHg 90%
    03:00 +21°C° 0.1 mm 1 m/S 643 mmHg 91%
    04:00 +19°C° 0.1 mm 0 m/S 643 mmHg 91%
    05:00 +19°C° 0.1 mm 0 m/S 643 mmHg 90%
    06:00 +19°C° 0.1 mm 0 m/S 643 mmHg 90%
    07:00 +19°C° 0.1 mm 0 m/S 644 mmHg 89%
    08:00 +22°C° 0.1 mm 1 m/S 644 mmHg 85%
    09:00 +24°C° 0.1 mm 1 m/S 645 mmHg 80%
    10:00 +25°C° 0.1 mm 1 m/S 646 mmHg 75%
    11:00 +25°C° 0.4 mm 2 m/S 645 mmHg 76%
    12:00 +25°C° 0.4 mm 2 m/S 644 mmHg 77%
    13:00 +26°C° 0.4 mm 2 m/S 644 mmHg 78%
    14:00 +25°C° 0.7 mm 1 m/S 643 mmHg 80%
    15:00 +25°C° 0.7 mm 1 m/S 643 mmHg 82%
    16:00 +25°C° 0.7 mm 1 m/S 642 mmHg 84%
    17:00 +24°C° 0.7 mm 1 m/S 642 mmHg 86%
    18:00 +23°C° 0.7 mm 1 m/S 643 mmHg 89%
    19:00 +22°C° 0.7 mm 1 m/S 643 mmHg 92%
    20:00 +22°C° 0.4 mm 1 m/S 643 mmHg 91%
    21:00 +21°C° 0.4 mm 1 m/S 644 mmHg 91%
    22:00 +19°C° 0.4 mm 0 m/S 644 mmHg 90%
    23:00 +19°C° 0.2 mm 0 m/S 644 mmHg 91%

    Morgen, 27 Januar, Montag

    Zeit Temperatur Niederschläge Wind Luftdruck Luftfeuchtigkeit
    00:00 +19°C° 0.2 mm 0 m/S 643 mmHg 91%
    01:00 +18°C° 0.2 mm 0 m/S 643 mmHg 91%
    02:00 +18°C° 0.1 mm 0 m/S 643 mmHg 91%
    03:00 +18°C° 0.1 mm 0 m/S 642 mmHg 91%
    04:00 +18°C° 0.1 mm 0 m/S 642 mmHg 91%
    05:00 +18°C° 0 mm 0 m/S 643 mmHg 90%
    06:00 +18°C° 0 mm 0 m/S 643 mmHg 89%
    07:00 +18°C° 0 mm 0 m/S 644 mmHg 88%
    08:00 +22°C° 0.2 mm 1 m/S 644 mmHg 84%
    09:00 +23°C° 0.2 mm 1 m/S 645 mmHg 80%
    10:00 +25°C° 0.2 mm 1 m/S 646 mmHg 76%
    11:00 +25°C° 0.5 mm 2 m/S 645 mmHg 75%
    12:00 +26°C° 0.5 mm 2 m/S 645 mmHg 75%
    13:00 +26°C° 0.5 mm 2 m/S 644 mmHg 74%
    14:00 +26°C° 0.7 mm 2 m/S 643 mmHg 76%
    15:00 +25°C° 0.7 mm 1 m/S 643 mmHg 79%
    16:00 +25°C° 0.7 mm 1 m/S 642 mmHg 81%
    17:00 +24°C° 0.5 mm 1 m/S 642 mmHg 85%
    18:00 +23°C° 0.5 mm 1 m/S 643 mmHg 88%
    19:00 +20°C° 0.5 mm 0 m/S 643 mmHg 92%
    20:00 +21°C° 0.6 mm 1 m/S 643 mmHg 91%
    21:00 +21°C° 0.6 mm 1 m/S 643 mmHg 91%
    22:00 +21°C° 0.6 mm 1 m/S 644 mmHg 90%
    23:00 +21°C° 0.1 mm 1 m/S 643 mmHg 90%

    übermorgen, 28 Januar, Dienstag

    Zeit Temperatur Niederschläge Wind Luftdruck Luftfeuchtigkeit
    00:00 +20°C° 0.1 mm 1 m/S 643 mmHg 89%
    01:00 +18°C° 0.1 mm 0 m/S 643 mmHg 89%
    02:00 +18°C° 0.1 mm 0 m/S 643 mmHg 90%
    03:00 +18°C° 0.1 mm 0 m/S 642 mmHg 90%
    04:00 +17°C° 0.1 mm 0 m/S 642 mmHg 90%
    05:00 +18°C° 0 mm 0 m/S 643 mmHg 90%
    06:00 +18°C° 0 mm 0 m/S 643 mmHg 89%
    07:00 +18°C° 0 mm 0 m/S 644 mmHg 89%
    08:00 +22°C° 0 mm 1 m/S 644 mmHg 82%
    09:00 +24°C° 0 mm 1 m/S 645 mmHg 76%
    10:00 +26°C° 0 mm 2 m/S 645 mmHg 70%
    11:00 +26°C° 0.2 mm 2 m/S 645 mmHg 71%
    12:00 +26°C° 0.2 mm 2 m/S 644 mmHg 73%
    13:00 +26°C° 0.2 mm 2 m/S 643 mmHg 75%
    14:00 +26°C° 0.5 mm 2 m/S 643 mmHg 76%
    15:00 +25°C° 0.5 mm 1 m/S 642 mmHg 78%
    16:00 +25°C° 0.5 mm 1 m/S 641 mmHg 80%
    17:00 +24°C° 0.4 mm 1 m/S 642 mmHg 84%
    18:00 +23°C° 0.4 mm 1 m/S 642 mmHg 87%
    19:00 +22°C° 0.4 mm 1 m/S 642 mmHg 91%
    20:00 +21°C° 0.4 mm 1 m/S 642 mmHg 91%
    21:00 +21°C° 0.4 mm 1 m/S 642 mmHg 90%
    22:00 +21°C° 0.4 mm 1 m/S 643 mmHg 90%
    23:00 +20°C° 0.1 mm 1 m/S 643 mmHg 90%

    29 Januar, Mittwoch

    Zeit Temperatur Niederschläge Wind Luftdruck Luftfeuchtigkeit
    00:00 +18°C° 0.1 mm 0 m/S 642 mmHg 91%
    01:00 +18°C° 0.1 mm 0 m/S 642 mmHg 91%
    02:00 +18°C° 0.1 mm 0 m/S 642 mmHg 91%
    03:00 +18°C° 0.1 mm 0 m/S 642 mmHg 91%
    04:00 +18°C° 0.1 mm 0 m/S 642 mmHg 91%
    05:00 +18°C° 0 mm 0 m/S 642 mmHg 90%
    06:00 +18°C° 0 mm 0 m/S 643 mmHg 90%
    07:00 +18°C° 0 mm 0 m/S 643 mmHg 89%
    08:00 +22°C° 0 mm 1 m/S 644 mmHg 82%
    09:00 +24°C° 0 mm 1 m/S 644 mmHg 76%
    10:00 +26°C° 0 mm 2 m/S 645 mmHg 70%
    11:00 +26°C° 0.4 mm 2 m/S 644 mmHg 70%
    12:00 +26°C° 0.4 mm 2 m/S 644 mmHg 71%
    13:00 +26°C° 0.4 mm 2 m/S 643 mmHg 72%
    14:00 +26°C° 0.9 mm 2 m/S 642 mmHg 75%
    15:00 +26°C° 0.9 mm 1 m/S 642 mmHg 77%
    16:00 +25°C° 0.9 mm 1 m/S 641 mmHg 80%
    17:00 +24°C° 1 mm 1 m/S 641 mmHg 83%
    18:00 +23°C° 1 mm 1 m/S 641 mmHg 87%
    19:00 +22°C° 1 mm 1 m/S 641 mmHg 90%
    20:00 +21°C° 0.5 mm 1 m/S 642 mmHg 90%
    21:00 +21°C° 0.5 mm 1 m/S 642 mmHg 90%
    22:00 +21°C° 0.5 mm 1 m/S 642 mmHg 89%
    23:00 +21°C° 0.1 mm 1 m/S 642 mmHg 89%

    30 Januar, Donnerstag

    Zeit Temperatur Niederschläge Wind Luftdruck Luftfeuchtigkeit
    00:00 +19°C° 0.1 mm 0 m/S 642 mmHg 89%
    01:00 +19°C° 0.1 mm 0 m/S 642 mmHg 90%
    02:00 +19°C° 0.2 mm 0 m/S 642 mmHg 90%
    03:00 +19°C° 0.2 mm 0 m/S 642 mmHg 90%
    04:00 +18°C° 0.2 mm 0 m/S 642 mmHg 90%
    05:00 +19°C° 0.1 mm 0 m/S 642 mmHg 90%
    06:00 +19°C° 0.1 mm 0 m/S 643 mmHg 89%
    07:00 +19°C° 0.1 mm 0 m/S 643 mmHg 89%
    08:00 +22°C° 0.1 mm 1 m/S 644 mmHg 83%
    09:00 +24°C° 0.1 mm 1 m/S 644 mmHg 77%
    10:00 +26°C° 0.1 mm 1 m/S 644 mmHg 71%
    11:00 +26°C° 0.5 mm 1 m/S 644 mmHg 72%
    12:00 +26°C° 0.5 mm 2 m/S 643 mmHg 74%
    13:00 +26°C° 0.5 mm 2 m/S 643 mmHg 75%
    14:00 +26°C° 0.6 mm 1 m/S 642 mmHg 76%
    15:00 +25°C° 0.6 mm 1 m/S 641 mmHg 77%
    16:00 +25°C° 0.6 mm 1 m/S 641 mmHg 78%
    17:00 +24°C° 0.6 mm 1 m/S 641 mmHg 82%
    18:00 +23°C° 0.6 mm 1 m/S 641 mmHg 85%
    19:00 +22°C° 0.6 mm 1 m/S 642 mmHg 88%
    20:00 +21°C° 0.3 mm 1 m/S 642 mmHg 88%
    21:00 +21°C° 0.3 mm 1 m/S 642 mmHg 87%
    22:00 +21°C° 0.3 mm 1 m/S 642 mmHg 86%
    23:00 +20°C° 0.1 mm 1 m/S 642 mmHg 85%

    31 Januar, Freitag

    Zeit Temperatur Niederschläge Wind Luftdruck Luftfeuchtigkeit
    00:00 +20°C° 0.1 mm 1 m/S 642 mmHg 85%
    01:00 +20°C° 0.1 mm 1 m/S 642 mmHg 84%
    02:00 +20°C° 0.1 mm 1 m/S 641 mmHg 83%
    03:00 +19°C° 0.1 mm 1 m/S 641 mmHg 83%
    04:00 +18°C° 0.1 mm 2 m/S 641 mmHg 82%
    05:00 +18°C° 0.1 mm 2 m/S 642 mmHg 82%
    06:00 +18°C° 0.1 mm 2 m/S 642 mmHg 82%
    07:00 +19°C° 0.1 mm 2 m/S 643 mmHg 82%
    08:00 +21°C° 0.1 mm 2 m/S 643 mmHg 74%
    09:00 +24°C° 0.1 mm 1 m/S 644 mmHg 67%
    10:00 +26°C° 0.1 mm 1 m/S 645 mmHg 59%
    11:00 +27°C° 0 mm 1 m/S 644 mmHg 57%
    12:00 +27°C° 0 mm 2 m/S 644 mmHg 56%
    13:00 +28°C° 0 mm 2 m/S 643 mmHg 54%
    14:00 +28°C° 0.1 mm 2 m/S 642 mmHg 58%
    15:00 +27°C° 0.1 mm 1 m/S 642 mmHg 61%
    16:00 +27°C° 0.1 mm 1 m/S 641 mmHg 64%
    17:00 +25°C° 0.2 mm 1 m/S 641 mmHg 70%
    18:00 +23°C° 0.2 mm 1 m/S 641 mmHg 76%
    19:00 +22°C° 0.2 mm 1 m/S 642 mmHg 82%
    20:00 +21°C° 0 mm 1 m/S 642 mmHg 80%
    21:00 +20°C° 0 mm 2 m/S 642 mmHg 78%
    22:00 +19°C° 0 mm 2 m/S 643 mmHg 77%
    23:00 +19°C° 0 mm 2 m/S 643 mmHg 77%
    Mehr zeigen